Date,TemperatureHighF,TemperatureAvgF,TemperatureLowF,DewpointHighF,DewpointAvgF,DewpointLowF,HumidityHigh,HumidityAvg,HumidityLow,PressureMaxIn,PressureMinIn,WindSpeedMaxMPH,WindSpeedAvgMPH,GustSpeedMaxMPH,PrecipitationSumIn
2013-1-1,43.0,37.2,32.8,38.5,35.2,31.5,100,93,83,30.47,30.33,13,2,13,0.00
2013-1-2,41.5,35.5,32.4,37.5,34.3,31.4,98,96,85,30.33,30.17,7,1,7,0.00
2013-1-3,41.9,35.5,29.6,40.1,32.6,28.9,98,90,64,30.17,30.08,15,1,15,0.15
2013-1-4,48.8,44.6,42.1,45.4,42.5,40.5,96,92,85,30.30,30.13,17,4,17,0.01
2013-1-5,45.2,43.4,41.8,42.8,40.6,38.8,96,90,80,30.17,30.08,15,2,15,0.01
2013-1-6,45.4,42.8,40.4,42.4,40.4,38.0,95,91,86,30.17,29.95,16,4,16,0.22
2013-1-7,50.9,47.5,43.6,49.0,45.1,42.0,96,92,85,30.15,29.80,25,7,25,0.18
2013-1-8,51.7,47.9,43.6,50.2,46.4,42.4,98,95,90,30.15,29.72,26,4,26,0.56
2013-1-9,50.6,42.8,37.0,49.2,40.2,35.3,95,90,82,29.92,29.67,29,7,29,0.59
2013-1-10,39.7,37.0,34.7,37.5,35.2,33.7,100,93,87,30.10,29.92,13,2,13,0.02
2013-1-11,41.4,35.2,30.7,36.5,30.8,26.8,100,85,58,30.30,30.10,18,2,18,0.00
2013-1-12,39.2,34.0,28.6,32.8,29.5,27.4,97,84,68,30.41,30.29,16,3,16,0.01
2013-1-13,37.7,33.6,30.6,32.4,30.2,27.3,95,87,75,30.47,30.40,9,2,9,0.00
2013-1-14,35.2,32.0,29.1,33.9,30.3,27.3,96,93,89,30.54,30.45,14,3,14,0.00
2013-1-15,43.2,37.9,34.0,39.0,35.5,32.6,97,91,78,30.67,30.54,16,2,16,0.01
2013-1-16,41.7,35.8,33.9,38.0,34.6,32.8,98,95,86,30.65,30.49,7,1,7,0.00
2013-1-17,38.2,36.1,32.9,37.4,35.3,32.1,98,97,96,30.50,30.27,7,1,7,0.00
2013-1-18,39.7,35.5,32.3,37.8,34.4,31.5,98,96,92,30.31,30.24,10,2,10,0.00
2013-1-19,39.7,37.9,36.3,37.8,36.3,35.0,96,94,91,30.35,30.30,13,3,13,0.00
2013-1-20,40.6,38.2,35.3,38.4,36.6,34.3,97,94,90,30.36,30.24,7,2,7,0.00
2013-1-21,38.9,36.2,32.6,37.8,35.2,31.6,97,96,93,30.25,30.11,9,2,9,0.00
2013-1-22,38.2,34.4,29.9,36.5,33.0,29.0,98,95,88,30.12,29.89,5,1,5,0.00
2013-1-23,42.8,40.3,38.0,40.8,37.1,33.6,95,89,73,30.12,29.82,20,5,20,0.17
2013-1-24,44.9,40.3,35.8,43.9,38.9,34.5,97,95,89,30.18,30.02,18,3,18,0.18
2013-1-25,52.4,45.7,39.3,46.6,43.5,38.0,96,92,79,30.03,29.90,15,4,15,0.02
2013-1-26,46.5,43.0,39.5,42.4,40.5,37.9,95,91,83,30.02,29.85,19,4,19,0.06
2013-1-27,43.1,41.6,40.7,41.1,39.6,38.8,98,93,90,30.05,29.96,18,5,18,0.05
2013-1-28,46.3,44.1,41.7,43.1,40.7,38.9,93,88,84,30.06,29.98,33,10,33,0.01
2013-1-29,50.2,47.9,46.0,45.7,44.4,42.3,93,88,84,30.35,30.06,31,11,31,0.00
2013-1-30,50.4,48.3,46.1,48.1,46.6,44.2,96,94,90,30.35,30.29,21,5,21,0.15
2013-1-31,49.4,47.6,45.4,46.8,45.8,44.0,96,93,90,30.38,30.27,18,4,18,0.03
2013-2-1,50.0,46.2,41.5,46.2,44.3,39.6,97,93,84,30.38,30.31,10,2,10,0.01
2013-2-2,44.7,43.2,39.7,43.2,41.5,38.7,100,94,90,30.35,30.23,15,2,15,0.00
2013-2-3,46.9,43.7,37.4,44.4,42.0,36.6,100,94,90,30.27,30.18,15,4,15,0.00
2013-2-4,49.9,46.7,42.8,45.6,43.6,41.0,95,89,79,30.19,29.88,10,2,13,0.00
2013-2-5,50.3,46.1,43.8,45.8,43.7,42.5,95,91,83,29.93,29.81,21,5,21,0.21
2013-2-6,48.9,45.8,43.8,44.5,43.0,42.1,96,90,79,30.02,29.76,21,4,21,0.18
2013-2-7,50.1,43.4,37.1,42.4,39.4,34.9,95,86,69,30.17,29.79,16,3,17,0.04
2013-2-8,45.7,39.4,33.8,39.6,36.7,32.5,97,90,74,30.29,30.17,8,1,8,0.00
2013-2-9,48.4,41.5,34.8,41.9,38.3,33.8,98,89,74,30.31,30.23,10,2,10,0.00
2013-2-10,45.6,44.4,43.3,41.9,41.0,39.8,93,88,81,30.35,30.30,9,1,9,0.00
2013-2-11,46.4,44.3,40.2,45.0,42.3,38.9,96,93,83,30.33,30.30,12,2,12,0.06
2013-2-12,51.3,47.9,45.8,47.5,45.8,44.4,95,93,84,30.38,30.32,19,4,19,0.03
2013-2-13,48.7,46.6,42.2,46.6,43.1,40.6,95,88,80,30.49,30.31,21,5,21,0.00
2013-2-14,47.8,45.1,40.4,46.7,43.5,38.8,97,94,92,30.52,30.47,13,3,13,0.01
2013-2-15,55.6,47.1,41.3,47.8,44.4,40.2,97,91,73,30.52,30.16,12,3,12,0.00
2013-2-16,50.2,45.6,41.3,45.2,42.1,38.8,97,88,74,30.18,30.13,32,10,32,0.02
2013-2-17,47.3,43.2,38.9,40.5,38.6,36.5,94,84,69,30.22,30.08,24,5,24,0.00
2013-2-18,46.3,41.7,37.7,40.0,38.0,36.4,96,87,72,30.08,29.73,13,2,13,0.03
2013-2-19,49.9,42.7,37.7,41.9,39.9,36.3,98,90,70,29.98,29.70,18,2,18,0.04
2013-2-20,45.5,41.0,37.1,41.3,39.1,35.8,97,93,83,30.03,29.95,15,2,15,0.08
2013-2-21,44.4,42.7,40.8,42.6,40.7,38.6,95,92,85,30.07,29.99,21,5,21,0.16
2013-2-22,47.8,43.1,39.7,44.4,40.4,36.3,95,90,79,30.06,29.71,33,9,33,0.73
2013-2-23,48.2,44.0,40.1,39.2,38.1,36.2,92,80,65,30.36,29.93,33,14,33,0.00
2013-2-24,48.6,44.8,40.9,40.7,38.8,36.9,94,79,68,30.36,29.92,21,6,21,0.02
2013-2-25,48.7,44.0,41.7,41.0,38.9,33.7,93,82,58,30.28,29.88,31,10,33,0.29
2013-2-26,47.9,43.5,39.3,40.3,37.9,35.9,90,81,68,30.33,30.16,18,4,18,0.01
2013-2-27,46.8,44.4,41.4,44.5,42.3,39.4,96,92,86,30.27,30.17,16,2,16,0.09
2013-2-28,52.0,47.1,44.5,50.6,46.1,43.3,98,96,94,30.30,30.17,19,2,19,0.71
2013-3-1,56.1,53.4,51.7,53.0,50.8,48.8,95,91,82,30.34,30.26,20,5,20,0.02
2013-3-2,55.3,49.9,42.7,50.1,46.0,37.9,92,86,79,30.26,30.06,33,9,33,0.04
2013-3-3,52.1,43.7,39.0,41.8,38.3,36.1,94,82,60,30.27,30.19,25,5,25,0.02
2013-3-4,53.3,43.4,35.2,39.2,36.3,31.5,97,78,48,30.27,29.89,18,4,18,0.00
2013-3-5,46.4,43.2,39.9,42.3,39.6,35.8,95,87,78,29.89,29.69,11,3,11,0.10
2013-3-6,45.9,43.5,41.8,43.3,41.6,40.1,95,93,88,29.87,29.55,12,2,13,0.23
2013-3-7,50.9,44.9,40.7,44.9,42.2,39.4,97,90,73,30.06,29.87,15,2,15,0.28
2013-3-8,56.7,44.3,38.7,45.4,41.0,37.1,98,89,62,30.22,30.06,11,2,11,0.00
2013-3-9,57.4,43.2,35.2,47.3,38.7,34.2,98,86,52,30.48,30.22,16,3,16,0.00
2013-3-10,47.6,43.0,38.1,43.5,40.4,36.1,95,90,83,30.48,30.40,7,1,7,0.03
2013-3-11,50.2,46.5,44.3,48.6,44.8,43.0,97,94,88,30.42,30.14,12,1,12,0.13
2013-3-12,53.4,51.3,49.5,51.5,49.7,48.6,97,94,89,30.14,30.06,19,4,19,0.35
2013-3-13,52.7,50.5,48.4,51.3,49.2,47.3,97,95,94,30.18,30.07,14,2,14,0.21
2013-3-14,52.8,50.0,48.2,49.3,47.6,45.4,97,92,76,30.12,30.02,18,3,18,0.08
2013-3-15,56.2,51.1,47.6,53.3,49.0,45.6,97,93,85,30.19,30.12,21,4,21,0.09
2013-3-16,49.0,46.2,40.6,46.8,43.3,37.5,95,90,76,30.13,29.92,33,7,33,0.19
2013-3-17,45.7,42.2,39.8,39.6,37.5,36.0,89,83,74,30.22,29.97,34,11,34,0.09
2013-3-18,51.4,44.7,38.4,41.0,37.0,30.5,93,76,48,30.21,30.14,28,8,28,0.02
2013-3-19,46.8,43.4,37.8,44.2,40.1,35.7,96,88,76,30.20,29.57,11,3,11,0.42
2013-3-20,52.1,46.3,40.4,50.7,43.0,35.6,100,88,77,30.03,29.36,40,9,40,0.63
2013-3-21,44.7,40.8,38.2,38.8,36.7,34.1,93,85,75,30.19,30.03,33,10,33,0.04
2013-3-22,49.0,40.2,32.9,38.0,35.1,31.1,94,82,55,30.35,30.18,20,3,26,0.01
2013-3-23,52.0,41.1,35.5,38.2,35.2,32.2,94,81,52,30.37,30.27,10,1,10,0.00
2013-3-24,55.1,42.5,34.9,42.4,36.6,33.3,95,81,53,30.27,30.08,6,1,6,0.00
2013-3-25,58.4,45.7,35.9,45.0,38.6,34.6,100,79,43,30.10,29.90,5,0,5,0.00
2013-3-26,64.0,51.8,46.1,49.1,44.9,42.0,92,78,47,30.00,29.92,7,0,7,0.01
2013-3-27,58.1,51.0,47.1,48.8,46.1,44.3,95,84,64,29.97,29.91,10,2,10,0.01
2013-3-28,59.4,50.8,47.7,52.0,48.0,45.7,98,90,69,30.12,29.96,12,1,12,0.22
2013-3-29,66.5,52.8,47.2,50.3,47.2,44.6,95,83,48,30.23,30.12,9,1,9,0.01
2013-3-30,67.7,53.1,41.8,48.6,44.6,40.7,97,76,46,30.23,30.04,13,2,13,0.00
2013-3-31,71.6,53.7,42.0,52.3,46.3,40.6,97,78,45,30.04,29.87,22,3,22,0.00
2013-4-1,61.1,53.2,50.0,50.3,48.4,47.5,92,84,65,30.14,29.97,25,9,25,0.00
2013-4-2,55.5,51.4,48.1,49.6,47.7,45.7,94,87,79,30.18,30.13,19,7,19,0.00
2013-4-3,60.7,52.9,47.8,50.7,46.9,44.1,88,80,62,30.17,29.91,11,2,11,0.00
2013-4-4,56.2,51.7,49.2,55.1,49.6,46.8,99,92,86,29.92,29.63,15,2,15,0.30
2013-4-5,56.5,52.2,49.2,51.5,49.7,47.2,95,91,76,29.86,29.70,21,4,21,0.64
2013-4-6,52.7,48.9,45.2,49.4,45.5,43.3,96,88,78,29.91,29.69,26,5,26,0.44
2013-4-7,49.4,45.6,41.3,44.5,42.5,39.4,95,89,79,29.87,29.49,27,10,27,0.60
2013-4-8,54.9,48.4,42.9,46.1,43.5,40.3,92,83,70,30.26,29.87,18,6,18,0.00
2013-4-9,55.4,48.7,41.6,47.3,43.4,40.0,95,83,66,30.33,30.17,13,2,13,0.00
2013-4-10,53.7,51.2,47.7,50.4,46.1,43.3,95,83,70,30.25,29.93,41,12,41,0.28
2013-4-11,56.7,49.7,43.8,43.5,40.6,36.3,88,72,47,30.27,30.17,25,7,25,0.00
2013-4-12,47.3,43.7,40.0,45.0,39.9,37.1,94,87,75,30.18,29.68,32,4,32,0.14
2013-4-13,47.9,43.9,40.3,43.1,39.6,35.2,90,85,78,29.97,29.79,29,8,29,0.27
2013-4-14,50.3,44.2,38.9,43.3,40.4,37.3,94,86,67,30.00,29.92,21,3,21,0.11
2013-4-15,58.8,43.7,36.8,43.9,39.8,35.5,97,87,52,30.16,29.92,24,2,24,0.10
2013-4-16,57.1,45.7,38.8,44.4,40.3,35.9,97,83,49,30.38,30.16,17,2,17,0.01
2013-4-17,58.6,47.8,39.0,45.2,41.0,37.3,95,79,53,30.44,30.38,23,6,25,0.00
2013-4-18,53.4,48.7,45.2,49.2,44.6,40.0,94,86,77,30.44,30.21,16,4,16,0.01
2013-4-19,54.6,51.4,49.7,51.2,48.8,46.6,96,91,82,30.21,30.03,34,8,34,0.22
2013-4-20,55.9,50.7,47.5,47.1,45.7,43.6,92,83,70,30.26,30.20,31,10,32,0.00
2013-4-21,54.6,48.4,43.6,47.1,43.7,41.3,95,84,63,30.34,30.19,23,5,23,0.08
2013-4-22,62.6,48.8,39.7,44.5,37.1,24.0,97,70,23,30.48,30.34,16,3,16,0.01
2013-4-23,63.9,49.6,37.4,41.8,36.6,27.5,95,66,30,30.41,30.19,15,2,15,0.00
2013-4-24,68.7,53.3,40.2,46.4,41.1,35.2,96,68,31,30.30,30.04,12,2,12,0.00
2013-4-25,72.0,54.9,43.3,51.3,44.6,38.8,93,71,37,30.14,30.01,20,3,20,0.00
2013-4-26,67.7,54.4,47.4,51.3,45.6,35.4,93,75,31,30.23,30.14,20,5,20,0.00
2013-4-27,56.6,53.7,51.4,50.3,47.1,42.4,94,79,63,30.21,30.16,31,6,31,0.03
2013-4-28,56.5,52.2,49.2,49.6,46.3,41.5,93,81,58,30.20,29.92,29,8,29,0.18
2013-4-29,53.1,49.1,44.9,49.4,39.6,33.8,94,71,50,30.14,29.91,41,18,41,0.01
2013-4-30,57.2,48.0,40.8,39.9,36.6,30.2,87,66,41,30.43,30.14,22,6,22,0.00
2013-5-1,64.3,50.0,36.8,42.0,36.5,28.8,94,65,28,30.55,30.43,14,2,14,0.00
2013-5-2,68.4,54.2,42.0,47.2,41.7,36.0,94,66,34,30.51,30.32,17,2,17,0.00
2013-5-3,70.7,56.4,44.1,50.6,46.5,41.3,94,72,45,30.36,30.18,14,2,14,0.00
2013-5-4,75.2,62.0,46.6,50.9,46.1,39.5,96,61,31,30.19,29.94,21,4,21,0.00
2013-5-5,83.8,66.0,48.8,51.1,45.7,38.9,90,54,22,29.95,29.71,18,3,18,0.00
2013-5-6,81.7,63.6,49.5,61.8,52.2,46.7,92,69,38,29.83,29.74,23,4,23,0.00
2013-5-7,61.6,56.1,52.4,53.9,51.2,49.5,92,84,75,30.00,29.82,26,11,26,0.00
2013-5-8,69.5,57.6,53.3,55.8,51.2,48.9,87,80,61,30.13,30.00,18,4,18,0.00
2013-5-9,74.0,57.7,50.0,57.2,51.6,48.2,94,82,51,30.21,30.07,14,3,14,0.00
2013-5-10,78.7,61.5,49.2,59.7,52.3,43.2,94,74,49,30.18,30.07,20,2,20,0.00
2013-5-11,78.3,61.8,52.5,60.1,52.7,43.4,88,73,47,30.17,29.97,20,5,20,0.00
2013-5-12,66.7,60.7,56.9,59.1,56.7,54.6,95,87,75,30.08,30.00,16,4,16,0.04
2013-5-13,63.1,57.9,55.9,56.9,55.0,52.4,95,90,77,30.04,29.92,33,3,33,0.09
2013-5-14,64.5,55.2,47.9,47.7,44.7,40.3,88,70,44,30.20,30.09,10,4,16,0.00
2013-5-15,59.4,52.7,46.3,53.0,48.6,44.4,95,86,66,30.11,29.99,12,1,15,0.00
2013-5-16,68.7,57.7,49.7,56.5,52.0,46.5,97,83,48,29.99,29.85,18,4,23,0.00
2013-5-17,62.2,56.4,52.8,54.4,51.2,48.5,93,83,62,30.05,29.94,18,3,18,0.15
2013-5-18,60.2,55.1,50.5,52.8,50.0,47.6,93,83,69,30.26,30.06,17,4,17,0.02
2013-5-19,64.7,56.5,52.0,53.4,50.5,47.8,92,81,63,30.38,30.26,20,6,20,0.00
2013-5-20,66.6,55.5,48.3,52.9,48.8,45.5,91,79,59,30.34,29.90,21,5,21,0.04
2013-5-21,55.7,50.8,47.4,48.5,45.9,43.8,93,83,68,29.91,29.77,27,8,28,0.37
2013-5-22,51.6,48.6,46.7,48.7,45.0,43.0,94,87,80,29.91,29.84,15,5,15,0.22
2013-5-23,50.2,47.9,43.9,48.7,45.3,41.4,95,91,83,29.98,29.91,14,2,14,0.33
2013-5-24,57.6,51.7,46.8,51.7,48.6,45.5,96,90,73,30.04,29.94,14,2,14,0.14
2013-5-25,57.7,53.1,49.8,52.1,49.6,47.6,94,88,70,30.02,29.94,12,3,12,0.02
2013-5-26,60.1,54.2,51.1,56.4,52.0,49.7,96,92,82,29.97,29.92,16,2,16,0.11
2013-5-27,59.9,54.8,51.8,57.7,52.8,50.1,96,93,85,29.95,29.67,24,4,24,0.28
2013-5-28,60.3,55.0,52.2,52.6,50.9,48.2,94,86,71,29.87,29.74,28,6,28,0.02
2013-5-29,58.6,53.6,50.0,51.8,49.4,48.0,95,86,70,29.97,29.67,27,6,27,0.27
2013-5-30,58.4,53.1,50.5,51.9,47.3,-99.9,91,83,74,30.23,29.97,21,-6,21,0.04
2013-5-31,67.3,56.5,49.5,51.2,48.2,43.6,95,76,45,30.33,30.22,7,1,7,0.00
2013-6-1,70.5,60.1,52.3,55.2,51.8,49.4,92,76,54,30.23,30.01,15,2,15,0.00
2013-6-2,69.8,59.2,53.8,56.2,52.6,51.0,92,80,59,30.08,30.02,19,3,19,0.00
2013-6-3,71.7,58.8,49.3,57.2,51.7,47.2,94,78,53,30.11,30.03,17,4,17,0.00
2013-6-4,79.6,62.6,49.5,58.4,52.8,47.3,94,73,44,30.12,29.98,10,1,10,0.00
2013-6-5,79.9,64.2,54.0,61.0,55.4,51.6,93,75,45,30.08,29.99,14,2,14,0.00
2013-6-6,77.3,62.4,52.6,61.0,54.1,50.0,96,76,52,30.05,29.98,18,4,18,0.00
2013-6-7,66.9,60.0,54.4,56.9,52.6,47.5,85,77,67,30.14,30.02,27,9,27,0.00
2013-6-8,68.4,59.0,52.4,55.5,51.6,48.3,90,77,63,30.17,30.07,14,4,14,0.00
2013-6-9,66.5,50.4,50.9,54.3,32.2,-99.9,93,69,54,30.10,30.00,20,-117,20,0.01
2013-6-10,62.0,32.8,50.0,50.0,-4.7,-99.9,81,36,50,30.02,29.87,20,-362,20,0.00
2013-6-11,61.5,55.9,49.8,50.4,48.4,45.1,90,77,58,30.10,29.93,29,9,29,0.02
2013-6-12,59.2,55.3,50.3,53.4,50.2,47.8,92,83,70,30.13,30.09,24,4,24,0.08
2013-6-13,67.0,57.8,52.5,53.7,51.3,49.7,94,80,59,30.22,30.12,22,4,22,0.02
2013-6-14,67.7,57.6,52.8,54.9,51.2,48.1,93,80,62,30.22,30.02,20,3,20,0.00
2013-6-15,75.7,61.3,50.0,57.6,52.8,48.6,95,72,49,30.02,29.89,18,3,18,0.00
2013-6-16,68.1,61.5,53.1,57.6,54.2,50.6,93,77,61,30.08,29.98,22,7,22,0.00
2013-6-17,72.5,61.1,55.4,59.2,54.7,52.3,94,80,53,30.08,29.91,29,4,29,0.08
2013-6-18,65.5,59.0,53.5,55.2,53.2,49.1,96,82,57,29.96,29.89,23,4,23,0.01
2013-6-19,66.4,59.4,51.7,53.1,51.5,49.4,94,76,57,30.01,29.91,24,8,24,0.00
2013-6-20,62.2,58.3,55.2,52.5,51.6,49.9,89,79,65,30.08,29.95,30,9,30,0.01
2013-6-21,69.0,59.5,55.2,56.3,53.2,51.1,90,80,58,30.14,30.08,15,4,15,0.00
2013-6-22,77.2,62.5,51.2,58.5,54.0,49.5,96,76,46,30.10,29.82,8,2,8,0.00
2013-6-23,65.1,61.2,58.2,61.0,58.5,56.0,96,91,81,29.82,29.60,18,1,18,0.25
2013-6-24,64.1,59.8,57.5,59.4,56.8,54.5,98,90,78,29.68,29.56,19,3,19,0.51
2013-6-25,70.9,61.0,56.4,60.5,56.9,54.4,97,87,61,29.83,29.65,34,2,34,0.39
2013-6-26,67.8,61.2,56.8,61.2,58.1,55.4,97,90,75,30.05,29.82,16,2,16,0.11
2013-6-27,65.6,60.9,58.0,63.8,59.5,56.3,98,95,91,30.17,30.02,7,1,7,0.21
2013-6-28,82.6,67.6,58.5,67.8,61.4,57.5,98,82,53,30.16,30.02,22,3,22,0.00
2013-6-29,85.8,71.6,61.0,64.8,61.3,57.6,94,71,48,30.08,29.96,13,2,13,0.01
2013-6-30,90.9,72.3,60.0,68.3,62.8,57.6,97,75,41,29.99,29.81,16,2,16,0.00
2013-7-1,84.5,70.7,62.3,69.1,62.9,58.2,92,77,57,30.02,29.89,26,6,26,0.00
2013-7-2,79.4,66.1,59.6,64.9,59.9,57.0,92,81,58,30.09,30.01,21,5,21,0.00
2013-7-3,82.0,66.0,57.5,61.1,55.8,51.9,88,71,47,30.14,30.02,23,5,23,0.00
2013-7-4,71.1,61.9,55.4,58.2,55.0,52.5,91,79,60,30.11,30.01,23,6,23,0.00
2013-7-5,74.5,62.4,52.9,59.4,55.4,50.9,95,79,54,30.02,29.93,20,4,20,0.00
2013-7-6,82.4,64.4,55.7,62.8,57.0,53.0,92,78,48,29.97,29.83,15,4,15,0.00
2013-7-7,69.3,61.8,57.9,60.6,56.8,53.6,92,84,71,29.95,29.87,23,8,23,0.00
2013-7-8,78.5,63.8,56.3,63.3,57.3,53.1,91,80,59,30.08,29.95,16,2,16,0.00
2013-7-9,83.3,67.9,57.3,64.1,59.4,55.1,94,76,50,30.09,29.97,18,2,18,0.00
2013-7-10,70.8,61.3,55.7,56.5,53.6,49.5,92,77,56,30.06,29.94,22,8,22,0.00
2013-7-11,71.5,59.8,51.1,54.5,51.0,47.8,89,74,52,30.06,29.97,16,4,16,0.00
2013-7-12,69.0,59.4,53.9,55.7,51.9,49.7,88,77,61,30.08,29.99,16,3,16,0.00
2013-7-13,79.2,62.2,49.6,55.9,51.5,47.4,94,71,37,30.18,30.07,12,1,12,0.00
2013-7-14,81.2,64.7,52.7,57.9,52.5,47.2,95,68,36,30.12,29.96,18,3,18,0.00
2013-7-15,79.8,66.0,54.7,57.9,53.3,47.8,89,67,34,30.03,29.85,19,3,19,0.00
2013-7-16,80.5,68.2,55.3,62.7,56.6,52.7,93,68,42,29.88,29.77,21,2,21,0.00
2013-7-17,66.5,63.3,57.5,58.3,56.8,53.5,87,80,71,30.18,29.88,26,12,26,0.00
2013-7-18,80.8,64.3,53.9,62.7,57.1,51.7,94,79,53,30.21,30.08,17,2,17,0.00
2013-7-19,61.4,57.7,54.8,56.0,54.2,52.5,93,88,82,30.15,30.11,9,4,9,0.00
2013-7-20,71.5,61.6,55.9,61.7,56.4,53.4,93,84,70,30.08,29.95,12,6,16,0.00
2013-7-21,67.2,59.9,56.0,59.7,56.0,53.6,93,87,76,29.97,29.90,17,6,17,0.00
2013-7-22,71.5,61.7,55.5,62.9,57.3,53.8,95,86,74,30.05,29.94,15,4,15,0.00
2013-7-23,86.3,66.0,54.6,63.3,58.4,53.5,100,79,46,30.06,29.93,13,2,13,0.00
2013-7-24,85.3,65.8,54.1,63.2,57.5,52.4,94,76,46,30.05,29.95,14,3,14,0.00
2013-7-25,86.7,65.0,53.5,62.3,55.8,51.5,96,75,39,30.10,30.01,14,4,14,0.00
2013-7-26,79.1,66.1,55.7,61.7,55.8,52.5,90,71,49,30.14,30.05,18,5,18,0.00
2013-7-27,77.2,61.9,52.6,57.9,53.9,49.8,91,76,50,30.15,29.99,20,5,20,0.00
2013-7-28,64.5,59.1,54.5,56.7,53.8,51.3,92,83,73,30.01,29.96,22,6,22,0.00
2013-7-29,80.5,62.3,53.2,60.1,54.9,50.7,93,78,49,30.00,29.92,20,4,20,0.00
2013-7-30,73.5,61.5,56.5,60.7,56.3,53.5,91,83,63,30.13,30.00,19,5,19,0.00
2013-7-31,73.3,61.2,57.3,63.2,57.2,54.6,93,87,70,30.11,29.96,22,5,22,0.00
2013-8-1,65.1,60.7,57.2,58.2,55.9,53.9,91,84,77,30.06,30.02,22,8,22,0.00
2013-8-2,63.5,60.7,58.1,59.3,57.5,55.3,94,89,84,30.11,30.04,19,4,19,0.02
2013-8-3,70.7,63.8,59.5,60.8,58.7,56.2,92,84,69,30.11,30.02,9,2,9,0.00
2013-8-4,81.8,72.7,62.9,64.0,61.5,58.1,90,69,53,30.04,29.91,10,3,10,0.00
2013-8-5,81.5,66.4,56.9,64.5,58.8,54.3,95,78,54,30.00,29.90,13,4,13,0.00
2013-8-6,83.5,65.0,53.7,63.3,56.3,52.3,96,76,40,30.00,29.89,13,4,13,0.00
2013-8-7,88.0,65.2,54.8,63.4,57.3,53.4,96,78,37,30.01,29.92,18,4,18,0.00
2013-8-8,80.0,65.4,59.4,64.2,59.1,56.7,92,81,54,30.02,29.91,17,4,17,0.00
2013-8-9,78.5,63.6,56.4,64.1,58.1,55.0,96,83,57,29.95,29.82,14,3,14,0.00
2013-8-10,66.9,60.5,58.7,61.6,57.8,56.5,94,91,83,29.99,29.89,13,4,20,0.05
2013-8-11,72.8,64.0,58.1,60.7,56.6,53.7,87,77,62,30.05,29.97,20,6,20,0.00
2013-8-12,72.5,64.3,58.8,59.4,56.5,54.8,88,77,60,30.06,29.99,21,6,21,0.00
2013-8-13,83.4,66.8,55.3,59.6,55.6,51.4,93,70,36,30.09,29.90,12,2,12,0.00
2013-8-14,75.8,63.5,57.2,64.3,59.0,55.2,95,86,60,29.94,29.89,22,2,22,0.08
2013-8-15,69.3,64.0,61.6,67.2,62.6,60.2,98,95,88,29.97,29.91,7,0,7,0.05
2013-8-16,79.8,66.2,60.0,65.5,60.7,57.0,98,84,53,30.00,29.93,24,4,24,0.00
2013-8-17,72.0,65.6,60.3,62.4,59.9,57.0,89,82,70,30.06,30.00,19,6,19,0.00
2013-8-18,72.6,65.0,56.1,61.7,58.7,54.3,94,81,64,30.11,30.04,21,5,21,0.00
2013-8-19,74.0,65.0,56.5,63.0,58.3,54.6,95,80,60,30.09,30.03,20,5,20,0.00
2013-8-20,76.9,64.9,54.8,57.1,54.7,51.9,94,72,44,30.15,30.03,14,2,14,0.00
2013-8-21,80.0,65.4,52.5,58.1,54.2,50.7,95,70,42,30.06,29.90,15,2,15,0.00
2013-8-22,82.0,66.3,55.1,61.5,56.0,53.4,95,72,43,29.92,29.78,17,2,18,0.00
2013-8-23,70.5,65.1,62.2,60.4,58.7,57.7,88,80,66,29.88,29.83,27,9,27,0.00
2013-8-24,72.0,65.3,60.5,59.4,57.8,55.7,93,78,58,29.90,29.83,16,3,16,0.00
2013-8-25,71.5,61.7,53.2,59.6,56.1,52.1,97,83,64,29.93,29.84,10,1,10,0.00
2013-8-26,73.8,63.1,59.8,60.5,57.1,52.2,94,82,49,29.93,29.84,20,2,20,0.03
2013-8-27,78.6,66.4,60.4,64.4,60.9,58.5,94,84,57,29.93,29.77,17,3,18,0.06
2013-8-28,78.5,66.9,61.9,65.5,62.7,60.5,97,87,61,29.89,29.81,17,2,17,0.13
2013-8-29,72.4,65.8,63.1,67.5,63.8,61.9,97,93,84,30.00,29.81,15,2,18,0.40
2013-8-30,80.4,67.6,60.4,62.6,60.1,57.5,96,79,50,30.12,30.00,18,1,18,0.01
2013-8-31,78.0,65.3,55.8,64.8,59.2,54.7,97,82,59,30.06,29.80,11,1,11,0.00
2013-9-1,78.0,67.7,60.7,63.8,59.7,57.1,92,77,57,29.87,29.78,21,4,21,0.00
2013-9-2,75.4,66.6,60.2,62.9,60.0,57.2,93,80,61,29.92,29.84,21,4,22,0.00
2013-9-3,77.7,64.2,59.1,65.3,60.2,57.2,96,88,61,30.00,29.91,7,1,7,0.39
2013-9-4,70.4,63.6,58.6,63.2,60.5,57.1,96,90,75,30.03,29.97,12,2,12,0.04
2013-9-5,67.1,63.3,61.0,63.0,61.3,59.8,97,93,83,30.02,29.91,12,2,12,1.40
2013-9-6,67.6,63.8,61.5,62.7,61.3,59.5,97,92,82,30.09,29.93,20,4,20,0.45
2013-9-7,74.4,63.9,58.1,63.6,60.0,57.2,98,88,62,30.09,29.99,10,1,10,0.01
2013-9-8,79.5,65.1,57.0,64.8,60.2,56.1,98,86,54,30.09,29.99,11,2,11,0.01
2013-9-9,78.3,64.2,59.1,66.3,60.8,58.2,97,89,64,30.05,29.94,11,2,11,0.00
2013-9-10,78.4,66.1,57.3,64.7,60.4,56.1,98,83,62,29.97,29.85,16,2,16,0.00
2013-9-11,88.7,68.9,58.0,70.0,61.9,56.9,97,81,48,29.93,29.83,11,1,11,0.01
2013-9-12,78.2,64.5,60.0,66.1,60.5,57.8,95,88,65,29.99,29.89,17,6,19,0.00
2013-9-13,67.5,63.6,61.2,62.2,60.5,59.3,94,90,82,29.95,29.85,17,3,17,0.00
2013-9-14,69.0,63.3,59.5,63.1,60.8,58.1,95,91,80,29.86,29.72,6,0,6,0.00
2013-9-15,64.9,61.6,57.9,61.8,59.8,56.7,97,94,87,29.81,29.70,15,2,15,0.08
2013-9-16,66.9,62.9,59.7,61.4,58.9,56.1,94,87,76,29.91,29.80,20,5,20,0.01
2013-9-17,66.8,59.7,55.0,57.5,55.6,53.0,94,86,66,29.92,29.84,16,2,16,0.06
2013-9-18,67.6,58.0,51.5,57.5,54.1,50.3,97,87,67,30.06,29.92,10,2,10,0.01
2013-9-19,72.3,59.9,52.8,59.9,54.0,50.9,97,83,49,30.02,29.75,7,1,7,0.00
2013-9-20,69.5,59.7,52.9,58.4,55.2,51.1,98,86,66,29.75,29.58,25,3,29,0.14
2013-9-21,66.1,59.2,53.0,58.0,55.6,51.8,97,88,71,29.70,29.64,17,2,17,0.01
2013-9-22,62.2,57.7,55.1,57.6,55.1,52.1,94,91,84,29.76,29.54,29,6,29,0.64
2013-9-23,60.6,56.7,52.2,57.3,54.1,50.4,96,91,79,29.95,29.75,20,4,20,0.38
2013-9-24,60.2,53.9,50.2,53.6,51.3,48.7,97,91,73,29.95,29.82,17,3,17,0.10
2013-9-25,60.4,54.3,51.1,52.3,50.5,49.0,94,87,67,30.01,29.83,13,2,13,0.02
2013-9-26,61.6,52.6,48.3,55.2,50.2,47.3,97,92,69,30.12,30.01,7,2,7,0.00
2013-9-27,56.6,54.1,51.4,54.6,52.1,49.7,95,93,91,30.11,29.84,21,6,21,0.12
2013-9-28,61.2,56.6,53.4,59.4,54.9,51.3,96,94,87,29.84,29.34,41,6,41,1.61
2013-9-29,56.6,54.5,53.3,54.1,51.8,47.7,94,91,77,29.55,29.15,33,7,33,0.69
2013-9-30,58.2,53.2,49.8,53.3,49.7,47.1,94,88,75,29.92,29.42,33,7,33,0.76
2013-10-1,58.4,52.4,48.8,50.6,48.6,46.2,94,87,66,30.11,29.89,20,5,20,0.17
2013-10-2,55.2,50.7,48.2,50.4,48.6,46.8,96,93,79,30.16,30.02,19,4,19,0.50
2013-10-3,57.0,50.8,46.6,51.6,47.9,45.1,97,90,74,30.43,30.17,10,2,10,0.01
2013-10-4,60.9,51.1,47.7,52.6,48.5,46.7,97,91,70,30.46,30.33,8,1,8,0.00
2013-10-5,65.3,52.0,47.2,58.1,50.3,46.4,98,94,74,30.34,30.12,6,1,6,0.00
2013-10-6,73.8,55.5,45.3,54.0,49.6,44.4,98,83,40,30.12,29.87,26,3,26,0.03
2013-10-7,58.7,55.4,53.5,53.4,51.1,48.6,94,86,73,30.02,29.89,26,7,26,0.12
2013-10-8,57.8,52.4,46.2,49.4,47.9,44.8,97,85,70,30.06,29.92,34,8,34,0.17
2013-10-9,57.8,49.0,44.0,50.2,46.3,42.9,98,91,70,30.13,29.93,7,1,7,0.00
2013-10-10,55.4,51.6,47.4,53.9,49.7,45.8,98,93,88,30.05,29.92,12,2,12,0.04
2013-10-11,56.6,51.9,48.4,51.3,49.5,47.1,97,91,80,30.12,30.05,8,1,8,0.00
2013-10-12,56.9,51.1,47.2,50.5,48.3,46.0,100,90,76,30.20,30.05,10,1,10,0.05
2013-10-13,60.7,49.2,43.8,52.0,46.9,43.0,98,92,70,30.34,30.20,5,1,5,0.01
2013-10-14,61.0,50.3,46.5,51.5,47.6,45.0,97,91,69,30.41,30.34,9,2,12,0.00
2013-10-15,57.9,48.9,45.2,52.8,47.5,44.4,98,95,81,30.37,30.16,5,0,5,0.01
2013-10-16,56.0,50.6,46.1,51.7,48.8,45.3,98,94,83,30.18,30.13,7,1,7,0.00
2013-10-17,59.8,52.1,47.4,52.6,48.8,45.9,97,89,75,30.25,30.18,12,1,12,0.00
2013-10-18,54.9,49.3,46.6,50.9,48.0,45.4,98,95,85,30.23,30.13,11,2,11,0.01
2013-10-19,50.6,48.3,46.4,49.3,47.3,45.7,98,97,93,30.18,30.13,13,2,13,0.00
2013-10-20,51.0,49.3,47.5,49.0,47.7,46.1,96,94,92,30.18,30.13,14,5,14,0.00
2013-10-21,51.3,49.9,48.8,49.3,48.4,47.3,97,95,92,30.15,30.07,14,5,14,0.01
2013-10-22,59.6,51.5,47.2,53.7,49.3,46.1,97,92,79,30.09,30.00,15,4,15,0.00
2013-10-23,51.7,48.9,46.9,50.6,48.2,45.9,98,97,96,30.03,29.96,10,2,10,0.00
2013-10-24,50.4,48.0,45.9,49.8,47.5,45.4,100,98,97,30.10,30.00,9,1,9,0.01
2013-10-25,54.2,51.5,48.3,51.5,49.5,46.7,98,93,83,30.29,30.10,11,2,11,0.00
2013-10-26,53.7,51.4,47.0,49.2,48.2,45.9,98,89,82,30.31,30.17,14,2,14,0.00
2013-10-27,57.5,51.7,46.7,50.4,47.9,44.6,94,87,76,30.18,29.87,20,4,20,0.00
2013-10-28,58.8,53.6,43.7,46.2,39.4,34.3,96,61,43,29.92,29.85,30,9,30,0.00
2013-10-29,63.8,46.0,35.9,46.3,39.8,34.6,96,81,47,30.02,29.92,2,0,4,0.00
2013-10-30,57.0,48.3,39.2,48.5,42.7,37.7,96,82,70,30.11,30.01,19,4,19,0.00
2013-10-31,54.9,51.7,48.9,53.5,49.9,46.5,96,94,87,30.24,30.09,18,2,18,0.07
2013-11-1,56.7,52.4,49.2,52.9,50.5,47.8,96,94,85,30.26,29.82,11,2,11,0.02
2013-11-2,54.2,51.4,47.8,52.1,46.6,41.7,96,84,70,29.88,29.50,44,12,44,0.30
2013-11-3,52.7,47.9,40.2,43.7,41.8,37.8,92,80,64,30.10,29.88,28,10,28,0.00
2013-11-4,48.4,43.2,36.3,44.5,40.8,35.0,97,91,79,30.17,30.02,9,1,9,0.11
2013-11-5,55.1,50.3,44.9,50.5,47.2,43.5,97,90,72,30.24,29.98,22,4,22,0.07
2013-11-6,51.0,48.5,46.9,48.2,46.5,45.0,100,93,87,30.30,30.01,9,2,9,0.22
2013-11-7,53.9,50.7,47.4,53.3,48.4,46.1,98,92,84,30.01,29.70,35,6,35,0.85
2013-11-8,54.9,49.7,44.2,47.5,45.8,42.9,95,87,73,30.14,29.99,21,2,23,0.00
2013-11-9,48.8,46.3,42.7,47.0,44.8,41.4,97,94,90,30.14,30.06,13,2,13,0.08
2013-11-10,52.0,49.0,45.5,47.4,46.0,43.6,94,89,81,30.12,30.07,17,6,17,0.00
2013-11-11,52.3,46.5,42.2,49.0,44.9,41.1,100,94,87,30.15,30.00,6,1,6,0.00
2013-11-12,59.6,52.7,45.8,54.5,50.4,44.8,100,92,82,30.36,30.01,18,3,18,0.09
2013-11-13,57.2,51.6,46.5,51.1,48.7,44.9,96,90,75,30.42,30.29,14,4,17,0.02
2013-11-14,51.5,46.3,42.7,47.6,44.6,41.6,97,94,85,30.29,30.05,6,1,9,0.00
2013-11-15,49.6,38.7,41.8,48.2,20.7,-99.9,97,58,1,30.05,29.37,16,-142,16,0.01
2013-11-16,51.2,40.1,44.7,42.7,19.4,-99.9,88,66,70,29.77,29.39,19,-146,24,0.00
2013-11-17,50.1,47.0,43.5,48.7,45.5,41.0,99,94,85,29.89,29.77,21,5,21,0.36
2013-11-18,52.4,50.5,47.6,51.2,49.2,46.8,98,95,93,29.90,29.53,26,4,26,0.37
2013-11-19,52.8,47.1,43.0,51.7,42.9,35.0,96,85,72,29.97,29.55,26,7,26,0.08
2013-11-20,45.9,40.9,34.4,35.7,33.4,28.6,91,75,52,30.48,30.09,19,8,20,0.00
2013-11-21,48.6,37.9,31.5,40.4,31.4,-99.9,99,81,55,30.63,30.48,17,2,17,0.01
2013-11-22,48.7,39.8,31.4,37.7,33.8,27.4,97,80,58,30.62,30.45,19,4,19,0.00
2013-11-23,46.8,37.4,32.1,41.0,35.5,30.8,97,93,79,30.43,30.18,7,1,7,0.00
2013-11-24,43.1,38.7,35.6,41.4,37.7,34.6,98,96,92,30.24,30.15,6,1,6,0.01
2013-11-25,38.7,25.1,33.6,37.9,-6.1,-99.9,98,67,97,30.30,30.24,3,-26,3,0.01
2013-11-26,57.0,46.1,38.8,50.0,44.1,38.0,91,57,1,30.23,30.06,7,0,7,0.02
2013-11-27,53.3,45.2,38.9,46.8,42.8,37.9,96,91,75,30.07,29.93,8,0,8,0.00
2013-11-28,49.2,40.6,35.9,44.4,39.2,35.0,97,95,82,30.16,30.00,7,1,7,0.00
2013-11-29,50.1,46.5,38.2,46.7,43.5,37.2,97,89,84,30.30,30.16,12,4,14,0.00
2013-11-30,50.2,48.2,45.8,47.3,45.8,44.2,95,91,88,30.31,30.09,19,5,19,0.11
2013-12-1,55.4,51.3,44.5,53.3,48.5,38.3,97,90,79,30.09,29.78,38,13,38,0.45
2013-12-2,44.3,40.3,35.1,38.8,36.3,33.8,95,86,78,30.04,29.84,29,9,29,0.00
2013-12-3,42.6,38.6,33.1,34.5,28.7,23.0,96,68,47,30.29,30.04,26,8,26,0.00
2013-12-4,39.5,32.9,29.3,32.1,29.1,26.3,95,86,68,30.33,30.27,7,1,7,0.00
2013-12-5,33.6,30.5,27.2,29.1,27.4,25.4,95,88,77,30.31,30.16,11,2,11,0.00
2013-12-6,35.1,32.4,30.3,27.0,19.6,13.6,86,59,46,30.18,30.08,35,14,35,0.01
2013-12-7,33.0,29.3,24.0,23.4,17.7,10.2,86,62,41,30.41,30.18,32,10,32,0.00
2013-12-8,34.9,26.6,19.8,24.5,19.6,16.0,90,75,53,30.56,30.41,11,2,11,0.00
2013-12-9,32.6,30.1,26.1,30.4,24.3,18.4,93,79,71,30.56,30.47,14,4,14,0.00
2013-12-10,38.7,34.8,31.7,37.7,33.2,29.5,96,94,90,30.48,30.39,9,2,10,0.01
2013-12-11,39.1,36.6,32.7,37.9,35.4,31.7,97,95,93,30.39,30.15,11,2,11,0.00
2013-12-12,43.4,38.2,31.9,41.4,36.4,30.9,98,93,83,30.16,30.01,19,4,19,0.27
2013-12-13,48.3,45.7,42.9,46.2,43.9,41.3,95,93,90,30.41,30.12,19,6,19,0.00
2013-12-14,47.7,45.8,42.0,45.1,43.5,40.6,96,92,88,30.42,30.31,14,3,14,0.00
2013-12-15,50.4,46.7,44.2,48.9,45.3,42.5,97,95,91,30.43,30.32,19,5,19,0.12
2013-12-16,46.4,44.2,42.3,44.3,42.8,40.9,97,95,90,30.48,30.24,7,1,7,0.00
2013-12-17,44.5,42.5,39.9,42.6,41.0,38.4,96,94,92,30.25,30.09,15,4,17,0.00
2013-12-18,47.3,43.7,36.5,43.4,39.3,33.4,95,85,69,30.14,29.98,29,7,29,0.01
2013-12-19,41.4,38.2,33.2,36.0,31.9,26.9,97,79,58,30.33,30.15,22,3,22,0.00
2013-12-20,36.4,35.4,34.1,34.0,31.9,29.9,94,87,79,30.19,29.98,17,5,17,0.04
2013-12-21,48.3,45.2,42.5,46.8,43.6,40.6,96,94,89,30.15,29.82,7,2,17,0.00
2013-12-22,51.2,48.8,46.3,49.5,47.4,44.9,96,95,93,30.29,30.14,7,4,15,0.00
2013-12-23,51.8,48.8,44.5,49.5,45.8,41.2,96,89,77,30.49,30.16,24,8,32,0.06
2013-12-24,44.5,41.0,36.9,41.4,38.6,35.5,96,91,85,30.60,30.49,7,2,12,0.00
2013-12-25,41.0,39.7,37.7,39.5,38.0,36.3,97,94,90,30.51,30.38,7,2,10,0.00
2013-12-26,44.9,37.7,34.4,40.7,36.4,33.6,97,95,83,30.38,30.19,4,2,7,0.00
2013-12-27,47.4,41.0,33.5,45.1,39.7,32.7,98,95,89,30.35,30.12,12,4,20,0.00
2013-12-28,45.7,42.4,39.4,43.7,41.2,38.3,97,96,92,30.50,30.35,7,1,7,0.00
2013-12-29,43.4,41.3,38.4,40.9,40.0,37.1,98,95,90,30.47,30.30,7,1,7,0.00
2013-12-30,46.4,43.0,40.4,43.3,41.0,39.3,97,93,86,30.30,30.11,18,3,18,0.00
2013-12-31,46.3,44.8,43.3,45.2,43.2,41.3,96,94,90,30.36,30.17,18,3,18,0.06
2014-1-1,44.9,43.2,41.9,43.8,42.4,40.8,98,97,95,30.37,30.31,9,2,11,0.01
2014-1-2,51.3,46.6,42.5,46.8,43.6,41.1,97,90,77,30.23,29.90,31,4,31,0.20